Temperature
19 20 20 20 24 24 22 22 22 22 22 20 20 19 18 16 17 16 11 12 13 14 14 14 15 15 15 15 15 15 16 16 16 16 15 15 15 15 15 16 16 16 16 16 16 16 16 16 16
20 20 20 22 25 23 21 22 21 20 19 20 19 18 16 13 11 10 10 11 12 13 13 14 14 15 15 15 15 15 15 15 16 16 16 15 15 15 15 15 15 15 16 16 16 16 16 16 16
20 20 21 24 23 22 21 20 20 19 17 19 17 14 12 9 8 8 8 10 11 13 13 14 14 14 14 14 14 14 14 15 15 15 15 15 15 15 15 15 15 15 15 15 15 15 16 16 16
20 21 23 23 20 19 19 19 19 20 18 16 17 13 9 7 7 7 8 9 11 13 13 14 14 14 14 14 14 14 14 14 14 14 14 15 15 15 15 15 15 15 15 15 15 15 15 15 15
21 23 23 21 20 19 17 16 16 17 16 14 15 13 9 7 7 7 8 10 11 12 13 13 13 14 14 14 14 14 14 14 14 14 14 14 14 14 14 14 15 15 15 15 15 15 15 15 15
21 23 22 20 20 19 17 13 15 14 13 12 14 12 9 7 7 7 8 9 11 12 12 13 13 13 13 13 14 14 14 14 14 14 14 14 14 14 14 14 14 14 14 14 15 15 15 15 15
22 22 21 21 20 18 16 13 12 13 11 10 11 12 10 7 7 7 8 9 10 11 12 12 12 12 12 12 12 13 13 13 13 13 14 14 14 14 14 14 14 14 14 14 14 14 15 15 15
20 22 21 21 19 17 14 12 9 10 9 8 9 10 8 7 7 7 8 9 10 11 11 11 11 12 12 12 12 12 12 13 13 13 13 13 13 13 13 13 14 14 14 14 14 14 14 14 14
20 22 20 20 19 15 13 12 9 9 8 7 7 7 6 6 7 8 10 10 10 10 10 11 11 11 11 12 12 12 12 12 12 13 13 13 13 13 13 13 13 13 13 14 14 14 14 14 14
21 20 18 17 17 13 11 11 10 10 9 8 7 6 6 6 7 8 8 8 8 9 9 10 10 10 11 11 11 12 12 12 12 12 12 12 12 12 13 13 13 13 13 13 13 13 13 14 13
18 18 16 13 12 11 10 9 10 10 8 7 6 6 6 6 6 6 6 6 7 7 9 9 9 10 10 10 10 11 11 11 11 12 12 12 12 12 12 12 12 13 13 13 13 13 13 13 13
15 13 14 13 11 11 10 9 8 7 7 6 5 5 5 5 5 5 5 6 6 7 8 8 8 9 9 9 9 9 9 10 10 10 11 11 11 12 12 12 12 12 12 12 13 13 13 13 13
15 11 10 9 9 9 8 8 7 6 6 5 5 5 5 5 4 4 4 5 6 6 7 7 8 8 8 8 8 8 8 8 8 8 8 9 9 10 11 11 11 11 12 12 12 12 12 12 13
14 12 11 10 10 9 8 8 7 6 6 6 5 5 4 4 4 4 5 5 5 5 6 6 6 6 6 6 6 5 5 5 5 5 5 6 7 7 8 9 10 10 11 11 11 11 12 12 12
14 14 13 12 11 10 10 8 7 6 6 6 6 5 4 4 3 3 3 3 3 4 4 4 4 5 5 4 4 4 3 3 3 3 3 3 4 5 6 6 7 8 9 10 10 10 11 11 11
17 17 16 13 12 10 12 8 6 6 6 6 6 5 5 4 3 2 2 2 2 2 2 2 3 3 3 3 2 2 2 1 1 1 1 1 2 3 4 4 5 5 6 7 8 8 9 10 10
19 19 16 13 11 11 11 8 6 5 6 6 5 5 5 4 3 2 1 1 1 1 1 1 1 1 1 1 1 0 -0 -0 -0 -0 -0 0 1 1 2 2 3 4 4 5 5 6 7 8 9
19 18 16 14 11 10 9 7 6 5 6 6 5 5 4 4 3 2 1 0 0 0 0 -0 -0 -0 -0 -0 -0 -1 -1 -2 -1 -1 -1 -1 -0 0 0 1 2 2 3 3 4 4 5 6 7
17 17 15 12 9 9 8 7 6 5 6 5 5 5 4 3 2 1 0 -0 -0 -1 -1 -1 -1 -2 -2 -2 -2 -3 -3 -3 -3 -2 -2 -2 -2 -1 -1 -1 -0 1 1 2 2 2 3 4 5
17 16 14 10 9 9 7 6 6 5 5 4 4 4 3 3 2 1 -0 -1 -2 -2 -2 -3 -3 -3 -4 -4 -4 -4 -5 -5 -4 -4 -3 -3 -3 -3 -2 -3 -2 -2 -1 0 0 1 1 2 3
16 16 15 12 8 8 7 7 6 5 5 4 4 4 3 2 1 0 -1 -2 -3 -3 -4 -4 -4 -5 -5 -5 -5 -5 -5 -5 -5 -5 -4 -4 -4 -4 -4 -4 -4 -3 -3 -2 -1 -1 -1 -0 1
16 13 13 11 11 11 9 12 7 6 5 5 5 4 3 2 1 -1 -2 -3 -4 -4 -5 -5 -5 -5 -6 -6 -6 -7 -7 -7 -7 -7 -6 -5 -5 -5 -5 -5 -5 -4 -4 -3 -3 -2 -2 -1 -0
14 11 12 11 12 12 10 11 10 6 6 6 5 4 3 1 0 -1 -2 -4 -5 -5 -6 -6 -6 -6 -6 -6 -7 -7 -8 -8 -8 -7 -7 -6 -6 -6 -6 -6 -5 -5 -5 -4 -3 -3 -2 -2 -1
12 12 11 11 12 13 12 11 12 7 6 5 5 4 3 1 -0 -2 -3 -4 -5 -6 -6 -7 -7 -7 -7 -7 -7 -8 -8 -8 -8 -8 -8 -8 -7 -7 -6 -6 -6 -6 -5 -5 -4 -3 -2 -2 -1
14 16 17 16 16 15 10 11 10 6 5 4 4 3 2 1 -1 -2 -4 -5 -6 -7 -7 -8 -8 -8 -8 -8 -8 -9 -9 -9 -9 -9 -9 -8 -8 -8 -7 -7 -7 -7 -6 -5 -4 -4 -3 -2 -1
13 15 16 15 16 16 11 11 8 6 4 4 3 3 2 0 -2 -3 -4 -6 -7 -7 -8 -8 -8 -8 -8 -9 -9 -9 -9 -10 -10 -10 -10 -9 -9 -9 -8 -8 -8 -7 -7 -6 -5 -4 -3 -2 -2
13 13 12 13 13 12 13 9 5 5 5 4 3 2 1 -1 -2 -4 -5 -6 -7 -8 -8 -9 -9 -9 -9 -10 -10 -10 -10 -10 -10 -10 -10 -10 -10 -9 -9 -9 -8 -8 -7 -6 -6 -5 -4 -3 -2
12 12 12 13 13 14 15 11 9 5 5 4 3 2 1 -1 -3 -4 -5 -7 -7 -8 -8 -9 -9 -10 -10 -10 -10 -11 -11 -11 -11 -11 -11 -11 -11 -10 -10 -9 -9 -8 -8 -7 -6 -6 -5 -4 -3
11 11 11 12 12 12 12 12 6 5 4 4 3 1 -1 -2 -4 -5 -6 -7 -8 -8 -9 -9 -10 -10 -10 -11 -11 -11 -11 -11 -11 -12 -12 -12 -11 -11 -10 -10 -9 -9 -8 -7 -7 -6 -6 -5 -4
10 10 11 12 12 11 11 10 5 4 3 3 2 0 -1 -3 -4 -5 -6 -7 -8 -9 -9 -10 -10 -10 -10 -11 -11 -11 -11 -12 -12 -12 -12 -12 -12 -12 -11 -11 -10 -9 -9 -8 -7 -7 -6 -6 -5
Wind_Speed
9 5 3 2 5 11 14 10 10 13 11 15 16 15 17 16 10 7 14 25 25 20 20 21 20 15 13 11 11 11 11 12 12 12 12 11 10 10 10 9 8 7 6 6 7 7 6 6 5
7 4 2 1 11 16 12 11 14 13 10 6 13 16 15 15 14 8 17 24 23 21 23 27 27 23 19 15 14 12 12 12 12 13 13 13 13 12 12 10 9 8 8 8 8 8 8 7 7
3 2 3 6 13 13 9 11 9 11 18 12 9 13 9 9 11 12 19 21 20 22 24 29 31 30 27 24 21 18 16 15 14 14 14 15 15 14 13 11 9 8 7 8 9 9 9 9 8
2 2 6 14 21 15 11 12 8 7 13 17 11 11 9 10 10 14 17 20 20 23 25 29 33 33 32 31 29 26 24 21 19 17 16 16 17 16 15 13 11 9 8 7 7 8 8 8 8
1 6 13 18 18 13 16 16 16 14 8 15 14 11 8 12 13 14 16 20 21 23 26 29 33 32 33 33 31 30 28 27 25 24 21 19 17 17 16 14 13 11 9 8 7 7 7 7 7
3 6 13 16 15 11 13 18 13 20 14 11 10 10 9 14 15 15 17 20 24 25 27 28 31 31 31 32 32 31 31 29 28 27 26 23 20 18 16 15 13 12 11 10 8 8 7 7 6
6 8 12 14 12 9 8 11 20 13 17 14 8 7 6 18 15 14 17 21 25 27 28 28 29 29 28 29 31 30 30 30 29 29 29 26 22 20 18 16 15 14 12 11 10 10 9 8 8
4 7 9 8 8 7 7 8 12 18 14 12 12 9 8 16 14 14 16 20 24 27 28 29 29 29 27 25 27 27 28 29 28 28 30 26 22 21 20 18 18 16 14 12 11 11 11 10 9
3 7 8 5 6 7 7 8 10 14 18 21 19 17 13 13 15 17 20 23 24 25 25 27 28 28 27 24 24 24 24 26 26 26 28 24 21 20 18 19 20 19 16 14 12 12 11 12 12
6 7 7 7 9 13 15 15 10 11 18 19 19 17 15 15 19 23 24 24 25 25 24 25 26 27 27 23 22 21 21 21 22 23 25 21 20 18 19 19 19 19 18 15 11 12 12 13 12
8 9 10 13 17 17 14 15 11 9 14 16 15 16 16 19 21 22 22 21 21 21 22 23 24 25 25 22 20 19 18 19 20 22 24 22 19 18 18 16 16 17 16 13 13 11 10 10 10
11 13 9 10 12 13 14 12 15 18 13 13 14 15 17 20 21 21 20 20 20 21 22 22 24 24 24 21 19 18 17 17 18 20 22 21 16 16 17 14 16 15 13 13 12 10 11 11 12
12 12 21 25 26 24 24 21 18 17 14 13 14 16 18 19 18 18 18 19 20 21 22 22 24 24 24 21 19 18 17 17 18 18 19 21 17 15 16 15 15 15 15 14 12 11 11 11 11
16 20 18 17 17 15 20 15 10 11 11 13 14 16 17 18 18 18 20 20 21 21 22 21 23 24 24 21 20 19 18 19 18 17 19 20 19 18 16 15 14 14 15 15 14 13 12 11 10
21 18 15 10 12 11 13 14 11 9 10 13 14 14 15 16 17 18 18 18 19 20 20 21 22 24 24 22 21 19 19 19 18 18 19 20 21 20 18 14 13 14 17 17 14 14 12 11 11
7 7 6 5 4 5 3 9 9 6 9 12 12 12 13 14 16 16 17 18 18 19 20 20 21 23 24 22 21 19 19 19 18 18 18 21 21 21 19 14 13 17 17 14 11 11 11 11 11
5 3 6 5 4 3 5 9 8 6 9 11 11 11 12 14 16 16 17 18 19 19 20 20 21 22 23 22 20 19 19 18 18 18 18 21 21 22 20 15 15 18 14 12 11 11 11 12 12
3 3 4 4 5 6 9 13 10 7 8 9 10 11 12 14 15 15 17 18 19 19 20 20 20 22 22 20 18 17 17 17 17 17 19 21 21 22 20 16 18 18 13 12 13 14 13 12 12
3 4 5 4 4 6 12 14 9 6 6 8 10 11 12 13 14 14 16 18 19 20 21 21 21 21 19 16 16 16 16 15 14 18 21 21 22 22 19 16 16 16 14 15 16 14 14 12 11
5 5 5 6 6 5 11 9 7 5 6 7 9 11 12 14 14 15 16 17 18 19 20 20 20 20 18 16 14 14 15 14 15 18 20 21 22 22 19 18 15 15 14 16 15 15 12 12 10
3 1 2 5 6 6 9 8 9 6 4 4 7 9 12 13 14 15 16 17 18 18 19 18 20 19 19 20 15 14 13 13 14 16 15 21 23 22 20 20 18 16 14 14 16 15 15 13 12
0 2 2 9 8 5 9 5 11 10 4 3 8 11 13 14 14 14 15 17 18 18 17 18 19 18 18 19 16 18 14 15 17 15 15 21 22 21 21 20 20 17 15 16 15 15 14 14 12
3 2 3 8 7 3 8 7 6 9 6 3 8 12 13 14 13 14 15 16 16 16 16 17 18 18 18 19 18 17 16 15 15 16 18 18 18 20 21 21 20 17 15 17 17 17 15 12 13
1 3 4 5 5 5 4 7 3 6 3 3 9 12 14 14 13 13 14 15 15 15 16 16 17 17 18 18 18 18 19 19 19 19 18 17 15 16 20 22 20 19 16 17 17 17 17 15 15
3 4 4 3 4 3 3 5 1 8 4 5 9 13 14 14 13 13 14 15 16 16 16 16 17 18 19 19 18 18 19 19 18 18 18 18 15 16 19 20 19 17 18 18 17 17 17 17 16
5 5 5 7 8 6 3 4 4 7 2 4 9 12 14 13 12 13 14 14 15 16 16 16 17 18 19 19 19 18 18 15 14 17 17 17 15 16 20 21 20 20 20 18 17 16 16 15 16
2 2 3 5 6 7 5 2 4 5 2 6 11 14 15 13 12 12 13 14 15 15 16 16 17 18 18 19 19 18 18 17 17 18 17 15 16 17 21 21 20 19 19 18 18 14 16 16 15
4 1 2 4 7 9 9 4 1 5 3 9 13 15 15 13 11 12 13 14 14 14 15 16 16 17 18 18 17 16 17 17 17 17 18 18 19 20 20 20 20 19 19 18 17 16 16 17 16
1 1 0 1 4 6 9 4 6 4 5 10 14 15 14 12 12 13 13 14 14 15 15 16 16 17 17 18 17 18 17 17 17 16 17 18 18 19 19 20 20 20 19 19 17 17 17 17 16
1 1 1 5 5 5 8 3 8 4 6 10 14 14 12 11 12 13 14 14 14 15 15 16 16 17 17 17 17 17 17 17 17 17 18 19 19 19 19 19 19 19 19 19 18 18 17 16 16
Wind_Direction
327 325 295 252 123 91 79 56 62 65 62 57 62 70 69 53 35 52 352 351 351 2 10 12 10 0 351 344 340 338 335 333 333 333 333 331 328 325 318 314 307 303 295 285 279 275 270 265 259
326 314 273 7 106 95 76 55 53 46 27 77 64 61 61 51 28 14 350 343 356 11 17 17 17 15 9 359 347 339 333 328 325 322 320 319 316 316 315 311 309 304 301 292 281 274 269 263 256
309 311 48 72 76 76 68 31 34 64 47 48 67 51 48 24 11 358 347 348 9 21 23 22 23 24 22 18 12 3 352 341 330 322 316 312 309 309 313 309 305 301 297 293 283 272 264 258 250
284 73 73 85 78 59 46 26 26 85 49 31 74 66 69 29 4 352 355 8 21 27 28 27 26 28 27 25 23 20 14 7 357 345 331 320 310 306 308 310 302 295 289 290 288 276 266 259 250
15 85 90 87 82 73 52 38 49 55 57 33 66 84 65 24 12 9 15 21 27 28 28 28 27 27 28 27 26 24 21 17 13 6 356 342 326 314 306 307 303 295 288 288 290 288 277 266 256
82 92 96 90 91 82 59 32 43 50 51 34 56 85 61 20 14 18 22 27 30 29 27 26 25 24 25 25 24 23 22 20 18 14 8 360 349 337 324 315 311 301 288 284 284 285 281 274 265
89 84 95 103 97 74 47 46 37 44 45 33 18 77 59 19 15 22 28 31 32 30 27 24 21 19 19 21 20 19 19 18 16 14 9 4 360 354 348 339 329 317 299 286 283 280 276 269 262
67 103 104 95 93 79 60 66 50 40 49 40 39 62 37 15 20 28 34 34 31 28 25 21 18 16 13 13 15 14 15 14 13 12 8 2 359 358 355 353 347 337 321 304 290 283 275 267 258
50 95 91 78 97 98 88 89 71 68 72 66 62 62 50 32 32 34 34 30 27 24 21 17 15 12 9 7 7 7 9 9 8 8 5 2 358 357 353 354 351 347 339 323 304 292 283 270 250
52 88 69 53 94 107 85 84 98 80 66 64 60 57 49 41 37 36 32 26 21 18 15 14 12 9 6 4 2 2 3 3 5 4 2 358 355 353 350 345 348 347 342 328 317 301 281 263 252
62 77 90 79 95 105 96 78 73 99 61 55 55 51 43 41 39 36 31 26 20 15 14 11 10 8 6 1 359 358 357 357 357 359 359 355 353 351 351 347 346 343 341 338 329 309 286 274 263
85 54 86 97 92 94 97 96 76 72 81 73 65 56 48 43 39 32 27 21 16 14 12 8 7 6 3 0 356 355 354 352 352 352 355 355 351 349 348 343 341 339 340 336 330 318 303 289 274
88 84 79 89 89 91 93 90 89 84 85 79 69 58 50 44 38 33 25 20 16 12 8 5 4 4 360 357 354 352 351 349 347 348 351 353 349 345 343 337 338 336 337 333 327 318 311 298 284
111 112 106 100 97 90 91 87 85 87 88 78 66 57 49 43 34 28 21 16 12 8 4 2 1 0 358 356 352 349 347 346 345 346 348 351 348 343 339 334 334 334 334 329 321 315 309 298 287
121 113 110 112 112 126 97 76 87 100 91 76 64 57 49 41 34 28 21 14 9 5 2 1 358 357 356 354 351 348 346 345 344 344 345 349 347 343 338 332 331 334 330 325 322 318 311 301 292
144 142 118 99 118 163 146 106 104 103 88 73 60 52 46 39 32 26 19 13 8 4 1 359 358 355 354 352 348 347 345 344 343 343 344 347 345 344 338 332 331 332 328 325 324 321 318 307 296
188 170 134 116 52 131 129 131 126 109 88 73 57 46 37 30 25 20 16 12 7 4 0 358 357 355 352 349 346 345 344 343 341 342 344 344 343 343 338 332 332 332 329 326 325 324 320 309 300
157 155 135 117 63 98 120 130 130 109 85 70 53 39 29 23 18 13 10 8 5 3 360 357 356 355 352 350 345 344 343 342 340 341 342 341 341 341 338 334 334 334 330 329 327 323 318 309 299
100 127 122 101 108 105 128 137 137 123 84 59 42 29 20 14 11 10 7 5 2 1 359 356 355 354 353 351 347 344 341 339 339 340 338 339 339 339 338 336 335 334 330 326 323 323 319 315 312
126 129 124 116 116 123 144 148 148 127 80 52 33 21 12 3 2 3 3 2 1 358 356 354 353 351 353 350 344 340 336 335 337 336 335 337 337 338 337 337 335 332 327 324 325 323 316 312 312
128 347 219 165 131 143 158 184 189 163 122 63 36 20 12 4 357 357 358 359 358 358 356 352 350 349 351 349 345 343 341 339 341 339 336 335 335 335 336 336 334 330 328 321 320 317 311 309 306
190 18 243 175 182 196 207 257 187 187 180 36 19 12 5 1 356 355 356 357 357 356 353 350 349 349 351 350 349 348 346 343 339 336 331 331 333 333 334 335 333 330 326 320 317 314 306 300 296
356 1 210 198 217 227 211 258 166 181 217 345 6 3 359 358 355 354 356 355 354 354 352 349 348 349 350 350 350 347 344 340 336 336 334 334 332 332 334 335 333 330 325 321 316 312 304 296 288
290 154 130 169 213 252 208 228 204 178 196 358 359 356 354 355 352 351 353 353 351 352 352 349 348 349 350 349 348 346 343 340 338 339 337 336 332 331 333 333 331 328 325 322 319 315 308 298 286
354 310 297 283 254 269 127 234 322 130 102 14 351 348 349 349 348 348 351 351 351 350 350 348 348 348 349 348 347 344 342 339 337 337 335 334 332 331 330 331 328 326 324 322 321 319 315 306 295
10 353 354 315 307 311 210 261 124 146 103 356 347 345 346 348 349 349 350 350 349 348 348 347 347 347 347 346 344 341 341 338 334 333 332 330 329 327 327 328 325 324 324 323 322 320 318 314 309
337 33 357 284 286 280 255 158 157 188 271 342 347 348 350 347 347 348 348 350 349 347 347 346 345 344 345 344 342 340 340 338 334 332 330 330 328 327 327 326 326 324 324 324 324 319 322 320 314
32 88 263 304 317 309 303 274 218 172 324 345 347 349 348 348 348 347 349 350 350 347 345 344 344 342 341 342 341 338 337 337 334 332 332 331 329 328 327 327 327 325 325 326 324 321 322 324 321
32 109 70 283 283 295 307 343 101 103 9 347 346 349 349 349 348 347 349 349 347 346 345 344 343 342 341 341 339 338 337 336 335 334 333 332 330 330 329 328 327 327 327 327 325 323 323 326 326
1 47 262 298 294 260 285 317 118 75 1 348 346 350 351 350 347 347 346 346 346 345 343 342 341 341 340 338 337 336 336 337 337 336 335 334 332 331 329 328 328 328 328 328 325 324 324 327 329
Height
1535 1533 1533 1534 1532 1535 1546 1551 1548 1549 1551 1556 1555 1556 1563 1569 1573 1583 1585 1578 1574 1572 1569 1567 1564 1562 1560 1558 1556 1554 1553 1551 1550 1549 1547 1546 1545 1544 1544 1543 1542 1541 1540 1539 1539 1538 1538 1538 1537
1535 1534 1535 1535 1530 1544 1555 1554 1556 1559 1561 1560 1560 1564 1568 1578 1585 1587 1582 1578 1575 1573 1570 1567 1565 1563 1561 1559 1557 1555 1553 1551 1550 1548 1547 1546 1544 1543 1542 1541 1540 1539 1538 1538 1537 1537 1536 1536 1536
1535 1535 1538 1537 1542 1551 1560 1562 1562 1563 1563 1562 1566 1572 1579 1589 1591 1589 1585 1581 1577 1574 1570 1568 1565 1563 1561 1559 1557 1555 1553 1551 1549 1547 1546 1544 1543 1542 1541 1540 1539 1538 1537 1536 1535 1535 1534 1534 1534
1536 1539 1540 1544 1556 1565 1567 1568 1566 1563 1565 1568 1570 1580 1591 1598 1596 1593 1588 1583 1579 1575 1571 1568 1566 1563 1561 1558 1556 1554 1552 1550 1548 1546 1544 1543 1542 1540 1539 1538 1537 1536 1535 1534 1533 1533 1532 1531 1531
1538 1541 1544 1552 1561 1570 1575 1575 1572 1569 1573 1578 1576 1588 1596 1600 1598 1594 1590 1584 1579 1575 1572 1569 1566 1563 1561 1558 1556 1554 1551 1549 1547 1545 1543 1541 1540 1538 1537 1536 1535 1534 1532 1532 1531 1530 1530 1529 1529
1542 1542 1548 1559 1565 1569 1576 1580 1576 1578 1582 1584 1585 1590 1601 1603 1598 1595 1591 1586 1581 1577 1573 1570 1567 1564 1561 1558 1556 1553 1551 1549 1546 1544 1542 1540 1538 1536 1535 1533 1532 1531 1530 1529 1528 1528 1527 1527 1527
1545 1547 1554 1561 1567 1573 1581 1585 1585 1586 1588 1592 1593 1594 1603 1603 1600 1597 1593 1587 1582 1578 1574 1571 1568 1565 1562 1559 1556 1553 1550 1548 1545 1543 1541 1539 1536 1534 1532 1531 1529 1528 1527 1526 1525 1524 1524 1524 1524
1547 1550 1558 1561 1568 1579 1588 1590 1595 1594 1597 1599 1597 1600 1606 1606 1603 1599 1594 1588 1583 1579 1575 1572 1569 1566 1563 1560 1557 1554 1550 1547 1544 1542 1539 1537 1535 1533 1530 1528 1526 1525 1523 1522 1521 1521 1520 1520 1520
1549 1554 1562 1566 1571 1584 1590 1593 1599 1605 1604 1604 1605 1608 1610 1607 1603 1598 1592 1587 1583 1580 1577 1574 1571 1567 1564 1561 1558 1554 1551 1547 1544 1540 1537 1535 1532 1530 1528 1525 1523 1522 1520 1519 1518 1517 1516 1516 1516
1554 1559 1572 1576 1577 1587 1593 1596 1601 1608 1607 1608 1610 1610 1610 1606 1601 1594 1590 1587 1584 1581 1578 1575 1572 1568 1565 1561 1558 1554 1550 1546 1543 1539 1536 1533 1530 1527 1525 1523 1521 1519 1517 1516 1515 1514 1513 1513 1513
1563 1571 1580 1585 1587 1591 1595 1600 1604 1607 1611 1614 1614 1613 1610 1605 1600 1597 1594 1592 1588 1585 1581 1577 1573 1569 1565 1561 1557 1553 1549 1545 1541 1537 1534 1530 1527 1525 1522 1519 1517 1515 1514 1513 1511 1511 1510 1509 1509
1572 1584 1583 1590 1593 1595 1597 1603 1608 1611 1617 1618 1616 1614 1611 1606 1602 1600 1597 1594 1591 1586 1582 1578 1574 1570 1565 1561 1556 1552 1547 1543 1539 1535 1531 1527 1524 1521 1518 1516 1513 1512 1510 1508 1507 1507 1506 1505 1505
1577 1591 1593 1596 1598 1601 1602 1607 1611 1618 1620 1620 1618 1615 1611 1608 1606 1603 1600 1596 1591 1587 1582 1578 1573 1569 1564 1559 1555 1550 1546 1541 1537 1533 1528 1524 1520 1517 1514 1511 1509 1507 1505 1504 1503 1502 1501 1501 1501
1583 1590 1595 1600 1600 1605 1606 1611 1614 1622 1622 1621 1618 1616 1613 1610 1608 1604 1599 1595 1591 1587 1582 1577 1573 1567 1562 1557 1552 1548 1543 1539 1534 1530 1526 1521 1517 1513 1510 1507 1504 1502 1500 1499 1498 1497 1496 1496 1495
1584 1589 1596 1602 1603 1607 1606 1615 1621 1623 1622 1620 1619 1617 1615 1612 1608 1605 1601 1597 1592 1587 1582 1577 1571 1566 1560 1555 1550 1545 1540 1536 1532 1527 1523 1518 1514 1510 1506 1502 1499 1496 1494 1492 1491 1490 1490 1489 1489
1582 1582 1588 1601 1603 1605 1606 1617 1625 1624 1623 1621 1619 1618 1616 1613 1610 1607 1602 1598 1593 1587 1582 1576 1570 1564 1558 1553 1547 1542 1538 1533 1529 1524 1520 1515 1511 1506 1502 1499 1495 1491 1488 1486 1485 1483 1482 1482 1483
1576 1577 1585 1599 1604 1604 1604 1616 1625 1625 1623 1621 1620 1618 1617 1614 1611 1607 1603 1598 1593 1587 1581 1575 1568 1562 1556 1550 1545 1540 1535 1531 1526 1521 1517 1512 1507 1503 1499 1495 1491 1487 1484 1482 1479 1477 1476 1475 1475
1575 1577 1585 1594 1605 1605 1607 1616 1624 1625 1623 1621 1620 1619 1617 1614 1611 1607 1603 1598 1593 1587 1580 1574 1567 1560 1554 1548 1542 1536 1532 1528 1523 1519 1514 1509 1504 1500 1495 1492 1488 1484 1480 1477 1474 1472 1470 1469 1468
1579 1581 1588 1601 1608 1609 1612 1618 1623 1624 1623 1621 1620 1618 1616 1614 1612 1608 1603 1597 1591 1585 1578 1572 1565 1559 1552 1545 1539 1533 1528 1523 1519 1515 1511 1506 1501 1497 1492 1488 1484 1480 1476 1473 1470 1467 1464 1464 1463
1582 1584 1592 1606 1610 1610 1615 1619 1622 1623 1623 1622 1621 1619 1617 1614 1610 1606 1601 1596 1590 1583 1577 1570 1564 1557 1551 1544 1538 1533 1527 1522 1517 1512 1508 1503 1499 1494 1490 1485 1481 1476 1472 1469 1466 1463 1460 1458 1459
1585 1584 1588 1597 1610 1612 1614 1616 1619 1622 1622 1622 1620 1619 1616 1613 1609 1605 1600 1595 1588 1582 1575 1568 1562 1556 1550 1543 1537 1531 1525 1520 1515 1509 1504 1500 1496 1491 1487 1482 1478 1474 1470 1466 1462 1460 1457 1455 1453
1586 1592 1592 1597 1598 1597 1605 1587 1607 1616 1619 1619 1618 1617 1615 1612 1608 1604 1599 1593 1587 1580 1573 1567 1560 1554 1548 1541 1535 1529 1523 1518 1513 1508 1502 1497 1493 1489 1484 1480 1475 1471 1466 1462 1459 1456 1454 1451 1449
1591 1594 1593 1593 1591 1592 1598 1595 1592 1613 1614 1616 1617 1615 1614 1611 1607 1602 1597 1592 1586 1579 1572 1565 1559 1553 1547 1540 1534 1528 1523 1518 1512 1506 1500 1495 1490 1485 1481 1476 1471 1467 1462 1458 1455 1452 1449 1447 1444
1594 1593 1593 1593 1589 1583 1583 1590 1580 1605 1610 1614 1616 1615 1612 1609 1606 1601 1596 1591 1584 1578 1571 1564 1558 1552 1545 1539 1533 1527 1522 1516 1510 1504 1498 1492 1486 1482 1478 1473 1468 1463 1459 1454 1450 1447 1444 1441 1439
1590 1584 1576 1572 1572 1570 1591 1588 1590 1609 1614 1616 1616 1614 1611 1608 1604 1600 1594 1589 1582 1576 1569 1563 1557 1550 1544 1538 1532 1526 1521 1515 1509 1503 1496 1490 1484 1479 1474 1469 1464 1460 1455 1450 1446 1442 1438 1435 1432
1594 1589 1587 1585 1571 1567 1587 1585 1601 1612 1615 1616 1615 1613 1610 1607 1603 1598 1593 1587 1581 1574 1568 1561 1555 1549 1542 1536 1530 1525 1519 1513 1507 1501 1496 1490 1484 1478 1472 1466 1462 1457 1452 1447 1442 1437 1433 1429 1426
1594 1594 1598 1593 1586 1587 1575 1593 1609 1613 1614 1614 1613 1611 1608 1605 1601 1597 1592 1585 1579 1572 1566 1560 1554 1547 1541 1534 1528 1522 1516 1510 1504 1499 1493 1488 1482 1476 1469 1464 1459 1454 1449 1444 1439 1434 1429 1424 1420
1601 1600 1598 1593 1589 1578 1565 1580 1591 1609 1612 1613 1611 1609 1606 1603 1599 1595 1590 1584 1578 1571 1565 1559 1552 1546 1539 1533 1526 1520 1514 1508 1502 1496 1491 1485 1479 1473 1467 1461 1455 1450 1446 1441 1436 1431 1426 1421 1415
1601 1602 1600 1598 1597 1590 1579 1580 1604 1610 1613 1613 1611 1608 1605 1602 1598 1594 1588 1583 1576 1570 1564 1557 1551 1544 1537 1530 1524 1518 1512 1505 1500 1494 1488 1482 1476 1470 1464 1458 1452 1447 1442 1438 1433 1428 1423 1417 1412
1605 1603 1601 1598 1593 1596 1592 1593 1610 1612 1613 1612 1609 1607 1604 1601 1597 1592 1587 1581 1575 1568 1562 1555 1549 1542 1536 1529 1522 1516 1510 1504 1498 1492 1485 1479 1473 1467 1461 1456 1450 1445 1439 1434 1429 1424 1420 1415 1409